Location: Newark
(43.0000°N, 1.6781°W)
Time: 08:46:29
(UTC+00:00)

Vanguard 1 - Pass Details

Date: 24 April 2021
Orbit: 649 x 3834 km, 34.2° (Epoch: 04 May)

Event Time Altitude Azimuth Distance (km) Brightness Sun altitude
Rises 20:25:56 0° 281° (WNW) 7,565 15.9 -14.8°
Reaches altitude 10° 20:32:36 10° 270° (W) 6,802 15.1 -15.8°
Maximum altitude 20:47:56 23° 228° (SW) 5,806 14.0 -18.1°
Drops below altitude 10° 21:02:20 10° 185° (S) 6,264 13.8 -20.1°
Enters shadow 21:06:35 - 175° (S) 6,661 13.9 -20.6°
